AS428 Weather Reports


Display with metric or nautical units.
time (UTC)temp
F
wind
direction
speed
MPH
gust
MPH
rain 1hr
in
rain 24hr
in
rain mn
in
humidity
%
barometer
mb
20260906084011 73 19 4.0 5.0 0.00 0.00 0.00 92 1015.3
20260906083013 73 43 2.0 4.0 0.00 0.00 0.00 92 1015.2
20260906082011 73 43 2.0 4.0 0.00 0.00 0.00 91 1015.1
20260906081012 73 26 4.0 7.0 0.00 0.00 0.00 91 1015.2
20260906080013 73 45 1.0 3.0 0.00 0.00 0.00 90 1015.1
20260906075111 73 58 2.0 6.0 0.00 0.00 0.00 90 1015.1
20260906074112 74 30 3.0 4.0 0.00 0.00 0.00 89 1015.0
20260906073112 74 32 5.0 8.0 0.00 0.00 0.00 89 1015.1
20260906072113 74 24 3.0 5.0 0.00 0.00 0.00 88 1015.1
20260906071114 74 43 3.0 6.0 0.00 0.00 0.00 86 1015.3
20260906070111 75 33 4.0 5.0 0.00 0.00 0.00 85 1015.3
20260906065113 75 33 5.0 8.0 0.00 0.00 0.00 85 1015.3
20260906065011 75 36 4.0 4.0 0.00 0.00 0.00 85 1015.3
20260906064913 75 22 2.0 3.0 0.00 0.00 0.00 85 1015.4
20260906062911 76 17 2.0 4.0 0.00 0.00 0.00 84 1015.5
20260906061913 76 8 3.0 5.0 0.00 0.00 0.00 84 1015.6
20260906060913 76 43 2.0 3.0 0.00 0.00 0.00 84 1015.6
20260906060011 76 21 3.0 4.0 0.00 0.00 0.00 83 1015.5
20260906055013 76 29 1.0 2.0 0.00 0.00 0.00 83 1015.6
20260906054013 76 2 1.0 2.0 0.00 0.00 0.00 83 1015.6
20260906053012 76 7 4.0 5.0 0.00 0.00 0.00 82 1015.6
20260906052012 77 22 1.0 2.0 0.00 0.00 0.00 82 1015.4
20260906051013 77 26 3.0 4.0 0.00 0.00 0.00 82 1015.3
20260906045910 77 22 2.0 2.0 0.00 0.00 0.00 81 1015.2
20260906044912 78 34 3.0 5.0 0.00 0.00 0.00 81 1015.1
20260906043911 78 20 2.0 4.0 0.00 0.00 0.00 80 1015.0
20260906043010 78 15 2.0 3.0 0.00 0.00 0.00 80 1014.9
20260906042013 79 32 2.0 3.0 0.00 0.00 0.00 80 1014.8
20260906041011 79 34 1.0 3.0 0.00 0.00 0.00 79 1014.8
20260906040028 79 24 3.0 4.0 0.00 0.00 0.00 78 1014.8
20260906035028 79 36 3.0 4.0 0.00 0.00 0.00 78 1014.9
20260906033028 80 31 3.0 5.0 0.00 0.00 0.00 77 1014.9
20260906032028 79 28 3.0 4.0 0.00 0.00 0.00 76 1014.7
20260906031027 80 22 2.0 3.0 0.00 0.00 0.00 77 1014.7
20260906030028 80 45 0.0 2.0 0.00 0.00 0.00 77 1014.7
20260906025028 79 22 2.0 3.0 0.00 0.00 0.00 76 1014.7
20260906023028 78 11 2.0 4.0 0.00 0.00 0.00 76 1014.4
20260906022029 78 360 1.0 2.0 0.00 0.00 0.00 76 1014.4
20260906021029 77 337 1.0 3.0 0.00 0.00 0.00 76 1014.2
20260906020128 77 67 0.0 0.0 0.00 0.00 0.00 76 1013.9
20260906015128 78 67 0.0 0.0 0.00 0.00 0.00 75 1013.8
20260906014127 78 67 0.0 0.0 0.00 0.00 0.00 75 1013.7
20260906013128 78 22 0.0 0.0 0.00 0.00 0.00 74 1013.6
20260906012130 79 22 0.0 0.0 0.00 0.00 0.00 74 1013.5
20260906011227 79 22 0.0 0.0 0.00 0.00 0.00 72 1013.5
20260906010229 80 22 0.0 0.0 0.00 0.00 0.00 69 1013.2
20260906010128 80 22 0.0 0.0 0.00 0.00 0.00 69 1013.2
20260906005128 80 22 0.0 0.0 0.00 0.00 0.00 69 1013.1
20260906004226 80 22 0.0 0.0 0.00 0.00 0.00 68 1013.2
20260906003228 81 22 0.0 0.0 0.00 0.00 0.00 66 1013.4
20260906002228 82 22 0.0 0.0 0.00 0.00 0.00 65 1013.6
20260906001228 82 22 1.0 1.0 0.00 0.00 0.00 64 1013.8
20260905235228 83 202 0.0 0.0 0.00 0.00 0.00 59 1013.7
20260905233231 84 202 0.0 0.0 0.00 0.00 0.00 59 1013.8
20260905232128 84 202 0.0 0.0 0.00 0.00 0.00 58 1013.9
20260905231131 83 181 1.0 4.0 0.00 0.00 0.00 60 1013.6
20260905230130 84 208 1.0 2.0 0.00 0.00 0.00 59 1013.7
20260905225228 84 180 2.0 3.0 0.00 0.00 0.00 60 1013.8
20260905224228 84 207 3.0 5.0 0.00 0.00 0.00 61 1013.7
20260905224129 84 215 4.0 8.0 0.00 0.00 0.00 60 1013.7
20260905223129 85 222 4.0 8.0 0.00 0.00 0.00 64 1013.8
20260905221130 91 244 5.0 9.0 0.00 0.00 0.00 58 1013.5
20260905220129 92 337 0.0 0.0 0.00 0.00 0.00 56 1013.2
20260905215129 92 22 1.0 1.0 0.00 0.00 0.00 56 1013.1
20260905214226 92 360 0.0 0.0 0.00 0.00 0.00 55 1013.3
20260905214128 92 360 0.0 2.0 0.00 0.00 0.00 54 1013.3
20260905213127 92 360 1.0 2.0 0.00 0.00 0.00 55 1013.4
20260905212127 93 270 1.0 2.0 0.00 0.00 0.00 54 1013.3
20260905210128 94 19 3.0 4.0 0.00 0.00 0.00 53 1013.4
20260905205127 94 4 3.0 4.0 0.00 0.00 0.00 53 1013.6
20260905205028 94 358 4.0 6.0 0.00 0.00 0.00 53 1013.5
20260905204127 94 350 3.0 6.0 0.00 0.00 0.00 53 1013.7
20260905203127 94 7 6.0 9.0 0.00 0.00 0.00 53 1013.9
20260905202128 94 29 4.0 5.0 0.00 0.00 0.00 52 1013.9
20260905200129 93 275 1.0 3.0 0.00 0.00 0.00 51 1014.2
20260905195129 93 338 3.0 4.0 0.00 0.00 0.00 52 1014.2
20260905194128 93 292 1.0 2.0 0.00 0.00 0.00 54 1014.3
20260905193129 93 5 6.0 8.0 0.00 0.00 0.00 53 1014.5
20260905192127 92 268 3.0 6.0 0.00 0.00 0.00 54 1014.6
20260905191227 92 25 3.0 4.0 0.00 0.00 0.00 54 1014.8
20260905185228 92 317 2.0 4.0 0.00 0.00 0.00 54 1015.0
20260905184326 92 267 3.0 4.0 0.00 0.00 0.00 54 1015.2
20260905183328 93 247 2.0 2.0 0.00 0.00 0.00 52 1015.3
20260905183227 93 239 0.0 2.0 0.00 0.00 0.00 53 1015.3
20260905182228 93 240 3.0 5.0 0.00 0.00 0.00 53 1015.6
20260905181326 92 187 0.0 2.0 0.00 0.00 0.00 54 1015.6
20260905180329 92 247 0.0 0.0 0.00 0.00 0.00 53 1015.7
20260905175427 91 155 0.0 1.0 0.00 0.00 0.00 54 1015.7
20260905174526 91 252 3.0 7.0 0.00 0.00 0.00 53 1015.7
20260905173527 91 247 5.0 5.0 0.00 0.00 0.00 52 1015.8
20260905172528 92 222 3.0 5.0 0.00 0.00 0.00 52 1015.9
20260905171626 92 165 4.0 5.0 0.00 0.00 0.00 53 1016.1
20260905170628 91 164 3.0 6.0 0.00 0.00 0.00 53 1016.4
20260905165726 90 225 2.0 3.0 0.00 0.00 0.00 54 1016.6
20260905164728 89 170 4.0 6.0 0.00 0.00 0.00 56 1016.4
20260905163826 89 139 2.0 4.0 0.00 0.00 0.00 56 1016.3
20260905162827 89 228 3.0 4.0 0.00 0.00 0.00 57 1016.3
20260905161926 89 122 4.0 5.0 0.00 0.00 0.00 56 1016.3
20260905160927 88 160 3.0 4.0 0.00 0.00 0.00 57 1016.7
20260905155928 87 91 1.0 4.0 0.00 0.00 0.00 59 1017.0
20260905154930 86 162 1.0 5.0 0.00 0.00 0.00 59 1017.0
20260905154026 86 210 3.0 6.0 0.00 0.00 0.00 61 1017.0
20260905153028 85 161 2.0 3.0 0.00 0.00 0.00 61 1017.0
20260905152127 84 163 2.0 5.0 0.00 0.00 0.00 63 1016.8
20260905151127 83 68 3.0 6.0 0.00 0.00 0.00 64 1016.8
20260905150226 82 154 5.0 8.0 0.00 0.00 0.00 65 1016.7
20260905144228 81 157 5.0 9.0 0.00 0.00 0.00 71 1017.4
20260905143227 81 166 6.0 11.0 0.00 0.00 0.00 73 1017.4
20260905141227 79 74 1.0 3.0 0.00 0.00 0.00 78 1017.1
20260905140226 78 166 3.0 6.0 0.00 0.00 0.00 81 1017.3
20260905135258 77 131 2.0 7.0 0.00 0.00 0.00 85 1017.2
20260905134327 77 163 4.0 7.0 0.00 0.00 0.00 88 1017.4
20260905133329 77 152 3.0 7.0 0.00 0.00 0.00 87 1017.2
20260905132328 78 134 2.0 5.0 0.00 0.00 0.00 89 1017.5
20260905131328 78 87 2.0 9.0 0.00 0.00 0.00 90 1017.7
20260905130327 77 148 1.0 3.0 0.00 0.00 0.00 93 1017.3
20260905124428 76 92 3.0 7.0 0.00 0.00 0.00 94 1017.2
20260905123429 76 180 0.0 0.0 0.00 0.00 0.00 95 1016.5
20260905122426 76 180 0.0 0.0 0.00 0.00 0.00 96 1016.2
20260905120429 74 180 1.0 2.0 0.00 0.00 0.00 96 1016.1
20260905115526 74 163 0.0 2.0 0.00 0.00 0.00 96 1016.2
20260905114528 74 90 0.0 0.0 0.00 0.00 0.00 96 1016.1
20260905113529 74 90 0.0 0.0 0.00 0.00 0.00 96 1016.0
20260905112628 74 90 0.0 0.0 0.00 0.00 0.00 96 1015.9
20260905112526 74 90 0.0 0.0 0.00 0.00 0.00 96 1015.8
20260905111530 75 90 0.0 0.0 0.00 0.00 0.00 96 1015.8
20260905110626 75 90 0.0 0.0 0.00 0.00 0.00 95 1015.6
20260905105726 75 90 0.0 0.0 0.00 0.00 0.00 95 1015.5
20260905104728 75 90 0.0 0.0 0.00 0.00 0.00 96 1015.5
20260905103729 75 90 0.0 0.0 0.00 0.00 0.00 95 1015.4
20260905101729 75 90 0.0 0.0 0.00 0.00 0.00 96 1015.7
20260905100728 75 90 0.0 0.0 0.00 0.00 0.00 95 1015.5
20260905094728 76 90 0.0 0.0 0.00 0.00 0.00 95 1015.5
20260905093726 75 90 0.0 0.0 0.00 0.00 0.00 95 1015.5
20260905091727 75 90 0.0 0.0 0.00 0.00 0.00 95 1015.3
20260905090728 75 90 0.0 0.0 0.00 0.00 0.00 94 1015.1
20260905085728 75 90 0.0 0.0 0.00 0.00 0.00 95 1015.3
20260905084729 75 90 0.0 0.0 0.00 0.00 0.00 94 1015.3